Location: Cincinnati Observatory Center
(39.1389°N, 84.4225°W)
Time: 00:08:52
(UTC-04:00)

Daily predictions for brighter satellites

Satellite Brightness Start Highest point End
(mag) Time Altitude Azimuth Time Altitude Azimuth Time Altitude Azimuth
Lacrosse 5 4.0 00:00:19 10° W 00:04:37 27° NNW 00:08:57 10° NNE
CZ-4 R/B 4.5 00:10:50 10° NNE 00:14:51 41° E 00:14:51 41° E
Cosmos 1709 Rocket 3.9 00:11:45 10° N 00:18:01 88° E 00:19:27 56° S
SL-14 R/B 4.4 00:19:42 35° W 00:19:57 35° WNW 00:23:34 10° N
ALOS 2 4.1 00:20:27 25° ENE 00:20:29 25° ENE 00:24:03 10° NNE
Cosmos 2278 Rocket 2.4 00:20:26 40° SW 00:22:27 69° WNW 00:28:07 10° NNE
NOSS 3-4 (A) 3.4 00:20:16 40° SW 00:22:40 87° WNW 00:29:05 10° NNE
NOSS 3-4 (C) 3.4 00:20:26 41° SW 00:22:45 88° WNW 00:29:11 10° NNE
NOSS 2-2 (E) 4.1 00:24:27 45° NE 00:24:27 45° NE 00:27:33 10° NE
Aureole 3 Rocket 4.3 00:23:27 42° S 00:26:34 89° W 00:32:55 10° N
COSMOS 2406 4.0 00:24:25 10° NW 00:29:42 38° WSW 00:30:39 35° SW
Cosmos 1461 3.5 00:34:21 54° W 00:34:58 60° WNW 00:39:41 10° NNE
CENTAUR R/B 3.7 00:29:08 10° NNW 00:36:52 51° NE 00:41:25 27° ESE
Cosmos 1766 Rocket 3.9 00:37:40 62° NE 00:37:40 62° NE 00:41:31 10° N
Cosmos 1408 Rocket 4.1 00:40:10 53° NE 00:40:10 53° NE 00:43:50 10° NNE
ADEOS Rocket 3.2 00:36:47 10° NNE 00:42:35 52° E 00:43:06 51° ESE
Cosmos 2315 Rocket 4.4 00:41:44 41° SW 00:43:41 58° W 00:49:56 10° N
COBE Rocket 4.3 00:39:21 10° N 00:44:19 59° WNW 00:45:03 53° WSW
Cosmos 1076 Rocket 4.5 00:46:47 39° WNW 00:46:47 39° WNW 00:50:45 10° N
USA 234 3.6 00:40:32 10° ENE 00:46:17 44° ESE 00:46:17 44° ESE
RESURS DK-1 3.5 00:50:15 38° NE 00:50:15 38° NE 00:52:56 10° NNE
Cosmos 1703 4.2 00:50:17 46° N 00:50:17 46° N 00:53:09 10° N
Cosmos 1151 Rocket 4.4 00:45:56 10° NNE 00:49:07 30° ENE 00:49:07 30° ENE
SL-27 R/B 4.1 00:47:20 10° N 00:49:37 34° N 00:49:37 34° N
Meteor 1-27 4.1 00:46:41 10° N 00:52:35 83° E 00:53:08 73° SSE
NOSS 2-2 (D) 4.1 00:53:56 50° N 00:53:56 50° N 00:57:28 10° NNE
H-2A R/B 3.3 00:53:56 31° NE 00:53:56 31° NE 00:57:02 10° N
H-2A R/B 4.1 00:49:48 37° SSW 00:53:30 50° SSE 05:39:06 10° ESE
Cosmos 2369 Rocket 4.2 00:55:50 15° E 00:55:50 15° E 00:58:08 10° ENE
Cosmos 2297 3.6 01:01:31 77° SW 01:01:57 86° WNW 01:07:42 10° NNE
Meteor 2-10 Rocket 4.2 01:00:03 10° N 01:04:53 42° ENE 01:05:02 42° E
Cosmos 2184 Rocket 3.9 00:58:50 10° N 01:05:13 83° E 01:06:02 69° SSE
Terra 4.2 01:06:06 11° W 01:06:42 12° W 01:08:24 10° WNW
Mayak -0.6 01:04:26 10° N 01:07:41 53° N 01:07:41 53° N
Cosmos 2228 Rocket 3.8 01:04:57 10° N 01:08:37 46° NE 01:08:37 46° NE
Meteor 2-21 4.4 01:04:03 10° N 01:10:05 67° E 01:10:42 63° ESE
Cosmos 2154 Rocket 4.3 01:05:35 10° N 01:11:48 53° E 01:12:47 49° ESE
Cosmos 2082 Rocket 2.0 01:06:08 10° NNW 01:11:52 82° WSW 01:12:02 81° SW
ATLAS 5 CENTAUR R/B 2.5 01:14:00 43° WNW 01:14:31 44° NW 01:19:12 10° NNE
ATLAS 3B R/B 3.6 01:10:27 10° NW 01:15:59 30° WSW 01:16:10 29° WSW
Cosmos 2151 3.7 01:20:45 52° NNW 01:20:45 52° NNW 01:24:04 10° N
Cosmos 1833 Rocket 2.8 01:15:38 10° NNW 01:20:59 59° W 01:20:59 59° W
CZ-4C R/B 4.4 01:24:27 44° NNW 01:24:27 44° NNW 01:27:13 10° NNW
Cosmos 1743 Rocket 4.2 01:31:37 54° NNW 01:31:37 54° NNW 01:35:09 10° N
Cosmos 1328 Rocket 4.5 01:28:24 10° NNW 01:31:39 42° NW 01:31:39 42° NW
Cosmos 1455 4.4 01:35:04 10° NW 01:36:45 19° WNW 01:36:45 19° WNW
CZ-4B R/B 3.7 01:34:02 10° N 01:39:15 63° WNW 01:39:27 63° W
Cosmos 2058 4.4 01:42:06 30° WNW 01:42:06 30° WNW 01:45:08 10° NNW
Cosmos 1943 Rocket 3.3 01:45:58 31° E 01:45:58 31° E 01:50:23 10° NE
BREEZE-M R/B 4.3 01:42:01 10° WNW 01:47:39 69° SW 01:48:58 56° SSE
Meteor 2-16 Rocket 4.3 01:43:08 10° N 01:49:18 90° WSW 01:49:53 75° S
Nadezhda 1 Rocket 4.4 01:50:33 48° WSW 01:51:38 53° W 01:57:54 10° N
MOS 1 Rocket 4.0 01:48:05 10° NNE 01:52:22 47° ENE 01:52:22 47° ENE
Cosmos 1140 Rocket 3.4 01:55:35 79° NNE 01:55:35 79° NNE 02:00:25 10° NNE
ALOS 2 4.3 01:57:50 24° WNW 01:57:50 24° WNW 02:00:26 10° NW
Cosmos 676 Rocket 4.0 01:58:15 76° NW 01:58:15 76° NW 02:03:19 10° NNE
Cosmos 1954 Rocket 3.9 01:58:39 82° N 01:58:39 82° N 02:03:37 10° NNE
Cosmos 1707 Rocket 4.5 02:01:17 10° N 02:05:04 42° ENE 02:05:04 42° ENE
Cosmos 407 Rocket 4.4 02:05:42 37° WNW 02:06:11 38° WNW 02:10:59 10° N
Cosmos 614 Rocket 4.0 02:06:25 69° WNW 02:06:25 69° WNW 02:11:30 10° NNE
Cosmos 1633 Rocket 4.2 02:08:40 35° ENE 02:08:40 35° ENE 02:12:10 10° NNE
Cosmos 304 Rocket 4.2 02:20:32 10° N 02:25:15 55° ENE 02:25:31 54° E
SL-24 R/B 4.4 02:21:18 10° N 02:26:12 80° WNW 02:26:24 79° WSW
Meteor 2-3 Rocket 4.1 02:25:50 48° ESE 02:26:37 51° E 02:32:11 10° NNE
CENTAUR R/B 3.6 02:20:05 10° NW 02:27:38 42° WSW 02:28:33 41° SW
PSLV R/B 3.8 02:22:57 10° NNE 02:27:27 80° NNE 02:27:27 80° NNE
H-2A R/B 4.3 02:31:02 15° WNW 02:31:02 15° WNW 02:32:17 10° NW
USA 234 3.8 02:23:28 10° NE 02:29:47 53° NW 02:33:36 24° W
Cosmos 1666 Rocket 3.8 02:31:34 64° NNE 02:31:34 64° NNE 02:35:17 10° N
Resurs 1-4 Rocket 4.0 02:28:28 10° NE 02:32:06 18° E 02:33:30 17° ESE
Cosmos 371 Rocket 4.3 02:30:08 10° NW 02:33:38 36° WNW 02:33:38 36° WNW
Cosmos 2369 Rocket 2.2 02:37:37 61° WSW 02:38:18 67° WNW 02:43:57 10° NNE
Cosmos 1850 Rocket 3.8 02:40:46 80° WSW 02:40:58 83° WNW 02:46:14 10° NNE
BREEZE-M DEB (TANK) 3.8 02:42:16 48° SW 02:44:13 75° SSE 02:47:37 10° ENE
Lacrosse 4 Rocket 2.9 02:52:46 28° E 02:52:46 28° E 02:56:17 10° NE
GP-B 3.9 02:48:44 10° NNE 02:52:57 41° E 02:53:22 40° ESE
Cosmos 2098 Rocket 4.4 02:47:32 10° NNW 02:54:47 56° W 02:56:17 47° SW
Cosmos 2242 Rocket 3.8 02:53:20 10° N 02:57:47 61° E 02:58:04 59° E
ARIANE 5 R/B 4.5 02:58:02 10° NE 03:01:27 18° E 03:03:29 15° ESE
Cosmos 1606 3.2 03:02:01 10° N 03:05:33 55° ENE 03:05:33 55° ENE
Cosmos 1763 Rocket 4.4 03:01:47 10° N 03:06:37 42° ENE 03:09:28 22° SE
Cosmos 1825 2.5 03:07:42 62° NNE 03:07:42 62° NNE 03:10:53 10° N
Cosmos 405 3.9 03:15:32 42° NNW 03:15:32 42° NNW 03:18:11 10° N
Cosmos 1656 Rocket 3.7 03:14:34 55° S 03:15:49 78° ESE 03:21:29 10° NNE
Cosmos 1408 3.3 03:18:48 46° NW 03:18:48 46° NW 03:21:49 10° N
CZ-4B R/B 2.9 03:20:24 28° NNW 03:20:24 28° NNW 03:22:03 10° NNW
Cosmos 1867 3.9 03:20:08 47° SSE 03:21:15 56° ESE 03:26:35 10° NE
BREEZE-M DEB (TANK) 4.4 03:20:28 10° NNW 03:22:25 24° NNE 03:25:25 10° E
Cosmos 1833 4.1 03:19:58 10° NNW 03:25:35 87° WSW 03:27:45 39° SSE
Spot 2 4.3 03:24:15 10° N 03:28:30 51° WNW 03:28:44 50° W
Cosmos 1943 Rocket 3.2 03:27:29 28° W 03:29:10 34° WNW 03:34:13 10° N
Meteor 2-6 Rocket 4.4 03:24:06 10° N 03:29:28 65° E 03:32:08 30° SSE
NPP 3.6 03:24:14 10° NNE 03:29:39 87° ESE 03:31:12 48° S
Cosmos 1437 Rocket 4.2 03:29:54 27° SE 03:31:04 31° E 03:34:43 10° NNE
Cosmos 1862 Rocket 3.7 03:27:30 10° NNW 03:31:55 57° W 03:32:05 57° WSW
Cosmos 1703 Rocket 4.3 03:28:32 10° N 03:32:49 49° E 03:34:33 31° SE
Cosmos 2208 Rocket 4.2 03:30:25 10° NNW 03:35:39 52° WSW 03:36:31 47° SW
Cosmos 1818 3.6 03:30:31 10° NNW 03:36:01 78° ENE 03:40:38 15° SE
Cosmos 841 Rocket 4.1 03:31:00 10° N 03:36:07 55° ENE 03:40:08 16° SE
CZ-2D R/B 2.1 03:34:51 10° NNE 03:40:10 78° ESE 03:42:08 40° S
AQUA 3.7 03:35:53 10° NNE 03:40:41 90° W 03:41:55 51° SSW
Cosmos 1782 2.7 03:37:01 10° NNW 03:40:57 68° W 03:41:03 67° WSW
Cosmos 468 Rocket 4.1 03:38:57 10° NNW 03:43:55 52° WSW 03:44:47 46° SW
ADEOS II 4.3 03:40:18 10° NE 03:43:56 19° E 03:47:34 10° SE
Okean 1-7 3.8 03:41:19 10° N 03:45:37 50° E 03:47:59 24° SE
Meteor 1-10 Rocket 4.1 03:41:32 10° N 03:47:09 87° W 03:49:55 32° S
IRS-1D 3.6 03:43:00 10° NNE 03:48:08 73° ESE 03:50:07 37° S
Meteor 1-27 Rocket 4.3 03:44:01 10° N 03:49:45 59° ENE 03:54:47 14° SSE
SL-16 R/B 2.4 03:46:32 29° S 03:49:56 79° WSW 03:56:08 10° NNW
Cosmos 2219 4.4 03:45:59 10° N 03:51:19 40° ENE 03:56:35 10° SE
IRS-P3 4.2 03:46:33 10° N 03:51:51 67° WNW 03:53:47 39° SW
PSLV R/B 3.5 03:52:35 56° N 03:52:36 56° N 03:55:32 10° E
H-2A R/B 2.2 03:50:54 10° N 03:54:54 77° WNW 03:55:37 57° SW
UNK 3.7 03:55:00 43° SSW 03:56:24 66° WSW 04:01:03 10° NNW
Meteor 1-4 Rocket 3.6 03:56:02 29° SE 03:57:14 40° E 04:00:41 10° NNE
PSLV R/B 4.2 03:58:15 24° SSE 04:00:40 68° ENE 04:04:51 10° N
Cosmos 1535 Rocket 4.4 03:55:05 10° N 04:01:12 79° W 04:04:57 25° S
SL-24 DEB 4.3 04:00:14 42° SSW 04:01:37 62° W 04:06:13 10° NNW
Cosmos 1605 Rocket 4.2 03:59:10 10° N 04:05:14 66° E 04:11:12 11° SSE
Cosmos 1486 Rocket 4.0 04:03:11 36° SSW 04:05:23 78° WNW 04:10:45 10° NNE
GPS 2-04 Rocket1 4.4 04:06:03 20° SSE 04:06:03 20° SSE 04:08:44 10° ESE
Resurs 1-4 Rocket 2.4 04:07:02 10° N 04:12:12 52° WNW 04:14:35 30° SW
Cosmos 1862 3.6 04:12:47 41° WSW 04:13:42 50° W 04:17:34 10° N
Cosmos 2297 Rocket 4.3 04:14:45 10° N 04:19:34 28° ENE 04:24:22 10° ESE
Cosmos 44 3.4 04:17:36 30° S 04:19:49 66° ESE 04:24:42 10° NE
SAR-Lupe-2 4.4 04:17:03 11° SSE 04:20:18 48° ENE 04:23:47 10° N
Cosmos 1934 Rocket 4.1 04:16:43 10° NNW 04:22:57 60° W 04:27:12 21° SSW
Cosmos 389 Rocket 3.9 04:21:40 15° SSE 04:24:11 35° E 04:27:32 10° NNE
ATLAS CENTAUR Rocket 3.3 04:26:13 19° S 04:27:15 21° SSE 04:32:11 10° ESE
Cosmos 2227 Rocket 3.9 04:22:43 10° N 04:27:55 35° ENE 04:33:05 10° SE
COSMOS 2455 2.8 04:24:37 10° NNW 04:30:39 76° WSW 04:36:37 10° SSE
Lacrosse 4 Rocket 2.9 04:29:05 19° W 04:31:08 27° NW 04:34:57 10° N
Cosmos 968 Rocket 4.2 04:27:06 15° S 04:31:19 49° ESE 04:36:24 10° NNE
Cosmos 1503 Rocket 3.9 04:28:22 24° SSW 04:31:31 86° WNW 04:36:43 10° NNE
UNKNOWN OBJECT B 2.8 04:34:15 10° NNE 04:38:15 88° WNW 04:40:53 21° SSW
Delta 2 Rocket 3.7 04:37:14 22° WSW 04:39:55 56° S 04:44:49 10° E
ARIANE 5 R/B 2.9 04:36:01 10° N 04:40:47 47° WNW 04:43:49 21° SW
Cosmos 2221 Rocket 3.9 04:39:25 10° NNW 04:43:40 48° W 04:46:36 19° SSW
ATLAS CENTAUR R/B 1.5 04:45:54 20° SSW 04:48:18 58° ESE 04:52:12 10° NE
CZ-2D R/B 3.6 04:45:01 10° N 04:49:14 63° WNW 04:52:06 19° SSW
Cosmos 1633 2.4 04:46:49 18° S 04:49:20 87° W 04:52:58 10° N
BREEZE-M DEB (TANK) 4.3 04:50:46 10° WNW 04:55:30 34° N 04:58:10 10° ENE
ASTEX 1 3.6 04:51:19 10° SSE 04:56:17 76° E 05:01:18 10° N
Cosmos 1727 Rocket 4.1 04:51:33 15° SSW 04:56:43 60° W 05:02:54 10° N
Cosmos 1656 4.1 04:53:38 10° S 04:59:11 63° ESE 05:04:48 10° NNE
Cosmos 374 Rocket 4.4 04:55:32 10° NW 05:00:14 85° SW 05:04:07 10° SSE
Cosmos 2173 Rocket 4.3 04:55:20 10° N 05:01:25 70° E 05:07:28 10° SSE
Meteor 1-25 Rocket 4.3 04:56:51 10° S 05:02:24 82° E 05:07:58 10° N
ADEOS 3.8 04:58:52 10° N 05:03:59 57° WNW 05:08:38 13° SSW
Cosmos 540 Rocket 4.1 05:02:49 10° NW 05:07:26 35° W 05:12:01 10° SSW
Centaur D AC-28 4.2 04:59:47 10° W 05:08:32 20° SW 05:12:30 10° S
Meteor 2-12 Rocket 4.4 05:10:09 10° N 05:16:19 85° W 05:22:24 10° S
Helios 1A Rocket 3.7 05:12:41 10° N 05:16:21 34° WNW 05:19:42 12° SW
Cosmos 1812 3.3 05:13:35 10° NNW 05:17:12 38° W 05:20:47 10° SSW
Lacrosse 5 3.9 05:14:18 10° NNW 05:18:51 32° NE 05:23:22 10° E
ATLAS 2A CENTAUR R/B 3.9 05:11:50 12° SW 05:19:20 26° S 05:23:58 10° SE
CZ-2D R/B 4.1 05:17:01 10° NNW 05:19:33 14° WNW 05:22:07 10° W
Cosmos 1697 Rocket 3.2 05:16:27 10° S 05:22:01 62° ESE 05:27:37 10° NNE
NOSS 3-1 (C) 4.2 05:15:51 10° NW 05:23:36 85° WSW 05:32:11 10° SSE
ADEOS II 2.4 05:18:50 10° N 05:23:54 50° WNW 05:28:57 10° SW
USA 81 4.2 05:20:39 10° SSW 05:25:49 57° W 05:31:02 10° N
CZ-4B R/B 3.8 05:24:10 10° NNE 05:28:09 51° E 05:32:18 10° S
PSLV R/B 2.8 05:26:11 10° WNW 05:29:09 70° SSW 05:32:05 10° ESE
Cosmos 2016 Rocket 4.2 05:23:15 10° N 05:29:40 82° E 05:36:00 10° S
CZ-3C R/B 4.4 05:26:07 10° SSW 05:31:05 13° SSE 05:41:30 10° SE
Cosmos 1782 Rocket 4.3 05:27:09 10° S 05:31:27 54° E 05:35:44 10° NNE
Cosmos 1378 Rocket 3.6 05:27:40 10° N 05:32:08 89° W 05:36:34 10° S
Okean 3 3.6 05:28:41 10° NNW 05:32:46 52° W 05:36:50 10° S
Cosmos 1802 Rocket 4.0 05:27:29 10° N 05:33:45 78° W 05:39:54 10° S
Cosmos 2219 4.2 05:30:35 10° NW 05:35:12 26° WSW 05:39:47 10° SSW
Cosmos 2369 3.8 05:30:10 10° SSW 05:35:45 66° WNW 05:41:24 10° NNE
Cosmos 2061 Rocket 4.0 05:31:08 10° N 05:37:20 74° W 05:43:34 10° S
Cosmos 1733 Rocket 4.2 05:35:07 10° SW 05:38:44 26° WNW 05:42:24 10° NNW
Gbstr 26 Del rocket 4.4 05:35:54 10° S 05:39:08 27° SE 05:42:39 10° ENE
Milstar 3 Cent rocket 3.9 05:32:39 10° WSW 05:45:54 44° S 05:52:36 10° ESE
